Tracking 17855 objects as of 25-September-2016
HD Live streaming from Space Station
objects crossing your sky now

GLOBALSTAR M086

Track GLOBALSTAR M086 now!
10-day predictions
GLOBALSTAR M086 is classified as:


NORAD ID: 38045
Int'l Code: 2011-080F
Perigee: 1,420.2 km
Apogee: 1,421.2 km
Inclination: 52.0 °
Period: 114.1 minutes
Semi major axis: 7791 km
RCS: 4.511 m2 (large)
Launch date: December 28, 2011
Source: Globalstar (GLOB)
Launch site: TYURATAM MISSILE AND SPACE COMPLEX (TTMTR)
Your satellite tracking list
Your tracking list is empty





NASA's NSSDC Master Catalog

Two Line Element Set (TLE):
1 38045U 11080F   16268.75026770 -.00000091  00000-0  69099-4 0  9995
2 38045  51.9916 346.1891 0000641 100.3500  51.1429 12.62266497221120
Source of the keplerian elements: AFSPC

N2YO: 483